• In Hungary
  • List of Countries
  • For 7 days
  • Water Temperature
  • Satellite Maps
  • Weather Map
  • News
  • Weather Widgets
  • user-avatar
    Login

    Hourly Weather Poboische

    Today, 25 September, Tuesday

    Time Temperature Precipitation Wind Pressure Humidity
    00:00 +12°C° 0 mm 1 mps 713 mmHg 79%
    01:00 +12°C° 0 mm 1 mps 713 mmHg 79%
    02:00 +10°C° 0 mm 2 mps 713 mmHg 78%
    03:00 +10°C° 0 mm 2 mps 713 mmHg 77%
    04:00 +10°C° 0 mm 2 mps 713 mmHg 76%
    05:00 +10°C° 0 mm 2 mps 713 mmHg 75%
    06:00 +10°C° 0 mm 2 mps 714 mmHg 74%
    07:00 +10°C° 0 mm 2 mps 714 mmHg 73%
    08:00 +13°C° 0 mm 3 mps 714 mmHg 63%
    09:00 +15°C° 0 mm 4 mps 714 mmHg 54%
    10:00 +17°C° 0 mm 5 mps 715 mmHg 44%
    11:00 +19°C° 0 mm 5 mps 715 mmHg 42%
    12:00 +20°C° 0 mm 6 mps 715 mmHg 40%
    13:00 +20°C° 0 mm 6 mps 715 mmHg 38%
    14:00 +20°C° 0 mm 5 mps 714 mmHg 41%
    15:00 +20°C° 0 mm 5 mps 714 mmHg 43%
    16:00 +20°C° 0 mm 4 mps 714 mmHg 46%
    17:00 +18°C° 0 mm 4 mps 714 mmHg 50%
    18:00 +16°C° 0 mm 3 mps 714 mmHg 55%
    19:00 +13°C° 0 mm 3 mps 714 mmHg 60%
    20:00 +13°C° 0 mm 3 mps 714 mmHg 60%
    21:00 +12°C° 0 mm 3 mps 714 mmHg 59%
    22:00 +11°C° 0 mm 3 mps 714 mmHg 59%
    23:00 +11°C° 0 mm 3 mps 714 mmHg 62%

    Tomorrow, 26 September, Wednesday

    Time Temperature Precipitation Wind Pressure Humidity
    00:00 +10°C° 0 mm 3 mps 714 mmHg 64%
    01:00 +10°C° 0 mm 3 mps 714 mmHg 67%
    02:00 +10°C° 0 mm 2 mps 714 mmHg 70%
    03:00 +10°C° 0 mm 2 mps 714 mmHg 72%
    04:00 +9°C° 0 mm 2 mps 714 mmHg 75%
    05:00 +9°C° 0 mm 2 mps 715 mmHg 73%
    06:00 +10°C° 0 mm 2 mps 715 mmHg 70%
    07:00 +10°C° 0 mm 2 mps 715 mmHg 68%
    08:00 +12°C° 0 mm 3 mps 715 mmHg 64%
    09:00 +13°C° 0 mm 4 mps 715 mmHg 60%
    10:00 +15°C° 0 mm 4 mps 715 mmHg 56%
    11:00 +17°C° 0 mm 4 mps 715 mmHg 55%
    12:00 +17°C° 0 mm 4 mps 715 mmHg 54%
    13:00 +18°C° 0 mm 4 mps 716 mmHg 54%
    14:00 +18°C° 0 mm 4 mps 715 mmHg 56%
    15:00 +17°C° 0 mm 4 mps 715 mmHg 58%
    16:00 +17°C° 0 mm 3 mps 715 mmHg 60%
    17:00 +16°C° 0 mm 3 mps 715 mmHg 62%
    18:00 +15°C° 0 mm 2 mps 715 mmHg 64%
    19:00 +14°C° 0 mm 2 mps 715 mmHg 65%
    20:00 +14°C° 0 mm 2 mps 715 mmHg 64%
    21:00 +13°C° 0 mm 2 mps 715 mmHg 63%
    22:00 +13°C° 0 mm 2 mps 714 mmHg 62%
    23:00 +12°C° 0 mm 3 mps 714 mmHg 59%

    Day after tomorrow, 27 September, Thursday

    Time Temperature Precipitation Wind Pressure Humidity
    00:00 +12°C° 0 mm 3 mps 714 mmHg 57%
    01:00 +12°C° 0 mm 3 mps 714 mmHg 55%
    02:00 +12°C° 0 mm 3 mps 714 mmHg 56%
    03:00 +12°C° 0 mm 3 mps 714 mmHg 58%
    04:00 +12°C° 0 mm 3 mps 714 mmHg 59%
    05:00 +12°C° 0.1 mm 2 mps 714 mmHg 67%
    06:00 +10°C° 0.1 mm 2 mps 714 mmHg 75%
    07:00 +10°C° 0.1 mm 1 mps 714 mmHg 82%
    08:00 +10°C° 0.6 mm 1 mps 714 mmHg 84%
    09:00 +9°C° 0.6 mm 2 mps 714 mmHg 85%
    10:00 +9°C° 0.6 mm 2 mps 714 mmHg 87%
    11:00 +9°C° 0.9 mm 2 mps 713 mmHg 87%
    12:00 +8°C° 0.9 mm 2 mps 713 mmHg 86%
    13:00 +8°C° 0.9 mm 2 mps 713 mmHg 86%
    14:00 +8°C° 0.2 mm 2 mps 713 mmHg 86%
    15:00 +8°C° 0.2 mm 2 mps 713 mmHg 86%
    16:00 +8°C° 0.2 mm 3 mps 713 mmHg 85%
    17:00 +7°C° 0.1 mm 3 mps 713 mmHg 86%
    18:00 +7°C° 0.1 mm 3 mps 713 mmHg 87%
    19:00 +5°C° 0.1 mm 3 mps 713 mmHg 88%
    20:00 +4°C° 0 mm 3 mps 713 mmHg 88%
    21:00 +4°C° 0 mm 3 mps 712 mmHg 88%
    22:00 +4°C° 0 mm 2 mps 712 mmHg 88%
    23:00 +3°C° 0 mm 3 mps 711 mmHg 86%

    28 September, Friday

    Time Temperature Precipitation Wind Pressure Humidity
    00:00 +3°C° 0 mm 3 mps 711 mmHg 84%
    01:00 +3°C° 0 mm 3 mps 711 mmHg 82%
    02:00 +3°C° 0 mm 3 mps 710 mmHg 82%
    03:00 +3°C° 0 mm 4 mps 709 mmHg 82%
    04:00 +3°C° 0 mm 4 mps 709 mmHg 82%
    05:00 +2°C° 0.3 mm 5 mps 709 mmHg 82%
    06:00 +2°C° 0.3 mm 5 mps 708 mmHg 83%
    07:00 +3°C° 0.3 mm 6 mps 708 mmHg 84%
    08:00 +3°C° 0.5 mm 6 mps 708 mmHg 85%
    09:00 +3°C° 0.5 mm 6 mps 708 mmHg 85%
    10:00 +3°C° 0.5 mm 6 mps 708 mmHg 86%
    11:00 +4°C° 0.1 mm 6 mps 709 mmHg 83%
    12:00 +4°C° 0.1 mm 6 mps 709 mmHg 81%
    13:00 +5°C° 0.1 mm 6 mps 710 mmHg 78%
    14:00 +6°C° 0.1 mm 5 mps 710 mmHg 75%
    15:00 +7°C° 0.1 mm 5 mps 710 mmHg 71%
    16:00 +7°C° 0.1 mm 5 mps 711 mmHg 68%
    17:00 +6°C° 0 mm 4 mps 711 mmHg 73%
    18:00 +5°C° 0 mm 3 mps 711 mmHg 78%
    19:00 +4°C° 0 mm 2 mps 711 mmHg 83%
    20:00 +4°C° 0 mm 2 mps 712 mmHg 83%
    21:00 +3°C° 0 mm 2 mps 712 mmHg 84%
    22:00 +3°C° 0 mm 2 mps 712 mmHg 84%
    23:00 +3°C° 0 mm 2 mps 712 mmHg 84%

    29 September, Saturday

    Time Temperature Precipitation Wind Pressure Humidity
    00:00 +3°C° 0 mm 2 mps 712 mmHg 83%
    01:00 +2°C° 0 mm 3 mps 712 mmHg 83%
    02:00 +2°C° 0 mm 3 mps 712 mmHg 82%
    03:00 +2°C° 0 mm 3 mps 712 mmHg 81%
    04:00 +1°C° 0 mm 4 mps 712 mmHg 79%
    05:00 +3°C° 0 mm 4 mps 712 mmHg 78%
    06:00 +2°C° 0 mm 5 mps 711 mmHg 77%
    07:00 +3°C° 0 mm 5 mps 711 mmHg 76%
    08:00 +5°C° 0 mm 6 mps 711 mmHg 72%
    09:00 +8°C° 0 mm 7 mps 711 mmHg 67%
    10:00 +10°C° 0 mm 8 mps 711 mmHg 63%
    11:00 +11°C° 0 mm 8 mps 712 mmHg 62%
    12:00 +11°C° 0 mm 8 mps 712 mmHg 62%
    13:00 +12°C° 0 mm 7 mps 712 mmHg 62%
    14:00 +13°C° 0 mm 6 mps 712 mmHg 65%
    15:00 +13°C° 0 mm 5 mps 712 mmHg 68%
    16:00 +12°C° 0 mm 4 mps 712 mmHg 71%
    17:00 +11°C° 0.1 mm 3 mps 712 mmHg 76%
    18:00 +11°C° 0.1 mm 3 mps 713 mmHg 81%
    19:00 +10°C° 0.1 mm 2 mps 713 mmHg 85%
    20:00 +9°C° 0.1 mm 2 mps 713 mmHg 88%
    21:00 +9°C° 0.1 mm 1 mps 713 mmHg 91%
    22:00 +9°C° 0.1 mm 1 mps 713 mmHg 95%
    23:00 +9°C° 0 mm 1 mps 713 mmHg 94%

    30 September, Sunday

    Time Temperature Precipitation Wind Pressure Humidity
    00:00 +8°C° 0 mm 1 mps 713 mmHg 94%
    01:00 +8°C° 0 mm 1 mps 713 mmHg 94%
    02:00 +8°C° 0 mm 1 mps 714 mmHg 94%
    03:00 +8°C° 0 mm 1 mps 714 mmHg 94%
    04:00 +8°C° 0 mm 1 mps 714 mmHg 94%
    05:00 +8°C° 0 mm 1 mps 714 mmHg 92%
    06:00 +8°C° 0 mm 1 mps 714 mmHg 91%
    07:00 +8°C° 0 mm 1 mps 714 mmHg 90%
    08:00 +9°C° 0.2 mm 1 mps 714 mmHg 88%
    09:00 +9°C° 0.2 mm 1 mps 714 mmHg 86%
    10:00 +9°C° 0.2 mm 2 mps 714 mmHg 84%
    11:00 +8°C° 0.6 mm 2 mps 714 mmHg 84%
    12:00 +8°C° 0.6 mm 2 mps 714 mmHg 85%
    13:00 +8°C° 0.6 mm 2 mps 714 mmHg 85%
    14:00 +8°C° 0.8 mm 2 mps 713 mmHg 87%
    15:00 +8°C° 0.8 mm 2 mps 713 mmHg 89%
    16:00 +7°C° 0.8 mm 2 mps 713 mmHg 91%
    17:00 +7°C° 0.8 mm 2 mps 713 mmHg 92%
    18:00 +6°C° 0.8 mm 2 mps 713 mmHg 93%
    19:00 +6°C° 0.8 mm 2 mps 713 mmHg 94%
    20:00 +5°C° 1 mm 2 mps 713 mmHg 94%
    21:00 +4°C° 1 mm 3 mps 713 mmHg 93%
    22:00 +3°C° 1 mm 3 mps 713 mmHg 93%
    23:00 +3°C° 0.6 mm 3 mps 714 mmHg 92%
    Show more